Location: Coupvray
(48.8929°N, 2.7967°E)
Time: 14:06:04
(UTC+00:00)

Altair 2 - Pass Details

Date: 24 January 2021
Orbit: 837 x 949 km, 90.2° (Epoch: 28 February)

Event Time Altitude Azimuth Distance (km) Brightness Sun altitude
Rises 04:23:10 0° 14° (NNE) 3,462 11.1 -30.3°
Reaches altitude 10° 04:26:32 10° 35° (NE) 2,540 10.6 -29.7°
Maximum altitude 04:30:07 17° 74° (ENE) 2,110 10.5 -29.1°
Drops below altitude 10° 04:33:45 10° 113° (ESE) 2,577 11.0 -28.5°
Sets 04:37:10 0° 134° (SE) 3,536 11.5 -28.0°
